This is the latest recevied weather packets stored in our database for station/object KJ4EWA. If no packets are shown the sender has not sent any weather packets the latest 10 day(s).
| Time | Temp. | Humidity | Pressure | Rain* | Wind** | Luminosity | Snow |
|---|---|---|---|---|---|---|---|
| 1777850895 | 23.33° C | 52% | 1020.4 hPa | 0 mm | - | 28 W/m² | - |
| 1777850592 | 23.89° C | 49% | 1020.4 hPa | 0 mm | - | 31 W/m² | - |
| 1777850290 | 23.89° C | 46% | 1020.9 hPa | 0 mm | - | 32 W/m² | - |
| 1777849987 | 24.44° C | 44% | 1020.4 hPa | 0 mm | - | 50 W/m² | - |
| 1777849683 | 26.11° C | 40% | 1020.5 hPa | 0 mm | - | 98 W/m² | - |
| 1777849380 | 26.11° C | 39% | 1020.6 hPa | 0 mm | - | 109 W/m² | - |
| 1777849077 | 27.22° C | 42% | 1020.6 hPa | 0 mm | - | 105 W/m² | - |
| 1777848773 | 26.11° C | 45% | 1020.3 hPa | 0 mm | - | 146 W/m² | - |
| 1777848469 | 26.11° C | 39% | 1020.2 hPa | 0 mm | - | 120 W/m² | - |
| 1777848167 | 25.56° C | 40% | 1020.5 hPa | 0 mm | - | 154 W/m² | - |
| 1777847865 | 26.67° C | 37% | 1020.2 hPa | 0 mm | - | 141 W/m² | - |
| 1777847562 | 27.22° C | 36% | 1020.3 hPa | 0 mm | - | 218 W/m² | - |
| 1777847258 | 26.67° C | 39% | 1020.3 hPa | 0 mm | - | 207 W/m² | - |
| 1777846956 | 26.11° C | 39% | 1020.3 hPa | 0 mm | - | 241 W/m² | - |
| 1777846654 | 26.11° C | 39% | 1020.3 hPa | 0 mm | - | 194 W/m² | - |
| 1777846352 | 26.11° C | 37% | 1020.1 hPa | 0 mm | - | 235 W/m² | - |
| 1777846048 | 26.67° C | 43% | 1020.2 hPa | 0 mm | - | 267 W/m² | - |
| 1777845745 | 26.67° C | 46% | 1020.5 hPa | 0 mm | - | 302 W/m² | - |
| 1777845442 | 26.11° C | 37% | 1020.5 hPa | 0 mm | - | 203 W/m² | - |
| 1777845139 | 27.22° C | 42% | 1020.3 hPa | 0 mm | - | 323 W/m² | - |
| 1777844837 | 26.67° C | 36% | 1020.6 hPa | 0 mm | - | 324 W/m² | - |
| 1777844533 | 26.11° C | 35% | 1020.7 hPa | 0 mm | - | 295 W/m² | - |
| 1777844232 | 26.67° C | 38% | 1020.5 hPa | 0 mm | - | 334 W/m² | - |
| 1777843928 | 27.22° C | 43% | 1020.7 hPa | 0 mm | - | 357 W/m² | - |
| 1777843625 | 27.22° C | 36% | 1020.7 hPa | 0 mm | - | 402 W/m² | - |
* Rain latest hour (hover to see other rain measurements)
** Current wind speed in m/s (hover to see current wind gust speed)